Find Starlink 11588

NORAD ID: 63319 Int'l Des: 2025-057 Owner: SPXS Country: US Constellation: starlink operational
別名: STARLINK-11588 [DTC] celestrak
LEOCIRCULAR

現在のビュー

3D地球を読み込み中...

About Starlink 11588

Starlink 11588 (NORAD 63319) is a starlink constellation satellite (v2 mini d2c) launched Mar 18, 2025 by SPXS of US. It operates in LEO, CIRCULAR orbit with a mass of 960.00 kg.

次回通過

Passes for default location (London). Set your location on the main map for personalized predictions.

高度履歴

Loading altitude history...

軌道要素

1 63319U 25057N 26263.79383503 .00479088 00000-0 35657-2 0 9992
2 63319 42.9999 168.3941 0001537 240.0997 119.9718 15.70572805 87860
Epoch: Sep 20, 2026 • Age: 29 hours

現在のステータス

高度 353.8 km
遠地点 / 近地点 N/A
速度 7.70 km/s
衛星直下点 16.43°N, 176.38°E
打ち上げ日 Mar 18, 2025
運用期間 1.5 years
タイプ internet

技術仕様

分類 Payload
質量 960.00 kg
乾燥質量 910.00 kg
長さ 0.30 m
スパン 29.00 m
形状 ? Box + pan
製造者 SPXS
バスタイプ Starlink V2MD
フェーズステータス In Orbit
所有者/国 SPXS/US

Most Searched